Location: Newark
(45.0500°N, 41.9667°E)
Time: 09:25:16
(UTC+00:00)

Starlink (trailer) - Pass Details

Date: 28 July 2019
Orbit: 549 x 550 km, 53.0° (Epoch: 19 August)

Event Time Altitude Azimuth Distance (km) Brightness Sun altitude
Rises 00:07:00 0° 300° (WNW) 2,723 7.1 -15.3°
Reaches altitude 10° 00:09:23 10° 310° (NW) 1,828 6.3 -15.0°
Maximum altitude 00:13:13 35° 17° (NNE) 901 5.3 -14.6°
Drops below altitude 10° 00:17:03 10° 84° (E) 1,824 7.0 -14.1°
Sets 00:19:26 0° 93° (E) 2,717 7.8 -13.8°
